Hourly Data Report for September 04, 2017

All times are specified in Local Standard Time (LST). Add 1 hour to adjust for Daylight Saving Time where and when it is observed.

EAST POINT (AUT)
PRINCE EDWARD ISLAND

46°27'36.000" N
61°59'18.000" W
7.70 m
8300418
71412
WEP

Download Data

Hourly Data (September 2017)
Hourly Data Report for September 4, 2017
Temp Definition
°C
Dew Point Temp Definition
°C
Rel Hum Definition
%
Wind Dir Definition
10's deg

Wind Spd Definition
km/h
Visibility Definition
km
Stn Press Definition
kPa
Hmdx Definition


Wind Chill Definition


Weather Definition


TIME
00:00 15.9 12.0 78 15 32   101.49     LegendNANA
01:00 15.9 13.0 83 14 30   101.38     LegendNANA
02:00 15.0 13.0 88 14 31   101.21     LegendNANA
03:00 14.4 12.8 91 13 33   100.97     LegendNANA
04:00 14.2 12.9 92 13 32   100.79     LegendNANA
05:00 14.7 13.1 90 13 35   100.57     LegendNANA
06:00 15.4 13.4 88 13 41   100.43     LegendNANA
07:00 16.0 14.0 88 14 37   100.32     LegendNANA
08:00 17.3 15.0 87 15 40   100.20     LegendNANA
09:00 19.9 17.4 86 15 35   100.02     LegendNANA
10:00 19.8 16.3 80 19 33   100.07     LegendNANA
11:00 18.9 14.5 76 20 31   100.06     LegendNANA
12:00 18.6 13.0 70 21 33   100.07     LegendNANA
13:00 17.5 12.6 73 21 34   100.07     LegendNANA
14:00 17.3 13.0 76 22 33   100.15     LegendNANA
15:00 17.3 12.7 75 24 31   100.24     LegendNANA
16:00 16.8 13.0 78 23 28   100.31     LegendNANA
17:00 16.9 12.4 75 23 26   100.38     LegendNANA
18:00 16.6 12.7 77 23 20   100.47     LegendNANA
19:00 16.6 12.9 78 23 19   100.55     LegendNANA
20:00 16.0 12.8 81 23 18   100.65     LegendNANA
21:00 15.6 12.6 83 22 17   100.73     LegendNANA
22:00 15.3 12.6 84 21 17   100.74     LegendNANA
23:00 15.0 12.3 84 21 20   100.78     LegendNANA

Notes on Data Quality.

Legend

  • E = Estimated
  • M = Missing
  • NA = Not Available
  • ‡ = Partner data that is not subject to review by the National Climate Archives
Date modified: